Location: Drocourt
(49.0571°N, 1.7669°E)
Time: 02:29:16
(UTC+00:00)

Transit 4A - Pass Details

Date: 20 April 2024
Orbit: 871 x 971 km, 66.8° (Epoch: 19 May)

Event Time Altitude Azimuth Distance (km) Brightness Sun altitude
Rises 13:18:08 0° 222° (SW) 3,530 11.6 48.7°
Reaches altitude 10° 13:20:40 10° 225° (SW) 2,577 11.1 48.4°
Maximum altitude 13:26:36 68° 309° (NW) 954 8.8 47.9°
Drops below altitude 10° 13:32:28 10° 32° (NNE) 2,540 9.9 47.3°
Sets 13:34:58 0° 36° (NE) 3,476 10.5 47.1°
